Voltar ao catálogo

PEGASUS DEB

AtivoPO
NORAD 39318·DEBRIS·🇺🇸 United States

Lançado May 19, 1994 de Vandenberg Space Force Base

Loading…

Próximas Passagens (próximas 24 horas)

TLE

AtualizadoSource: Space-Track

Época: Sep 12, 2026, 13:36 UTC

1 39318U 94029AFD 26255.56731690  .00000930  00000-0  12968-3 0  9996
2 39318  81.9471 347.7625 0185607  91.9270 330.4571 14.65338060290870

Acompanhe PEGASUS DEB em tempo real com AllMySat

Download on the App Store